TimePDT,TemperatureF,Dew PointF,Humidity,Sea Level PressureIn,VisibilityMPH,Wind Direction,Wind SpeedMPH,Gust SpeedMPH,PrecipitationIn,Events,Conditions,WindDirDegrees,DateUTC
12:55 AM,43.0,39.9,89,29.46,10.0,Calm,Calm,-,0.01,Rain,Light Rain,0,2012-03-30 07:55:00
1:04 AM,42.8,39.2,87,29.45,10.0,Calm,Calm,-,0.00,Rain,Light Rain,0,2012-03-30 08:04:00
1:55 AM,42.1,39.9,92,29.44,10.0,NE,4.6,-,0.00,Rain,Light Rain,40,2012-03-30 08:55:00
2:55 AM,43.0,39.0,86,29.44,10.0,NW,4.6,-,0.02,Rain,Light Rain,310,2012-03-30 09:55:00
3:55 AM,43.0,39.0,86,29.44,10.0,NNW,6.9,-,0.01,Rain,Light Rain,340,2012-03-30 10:55:00
4:55 AM,42.1,37.9,85,29.46,10.0,NW,9.2,-,0.00,Rain,Light Rain,310,2012-03-30 11:55:00
5:55 AM,39.9,37.9,93,29.46,10.0,SE,3.5,-,0.01,,Mostly Cloudy,140,2012-03-30 12:55:00
6:55 AM,42.1,39.0,89,29.46,10.0,Calm,Calm,-,N/A,,Clear,0,2012-03-30 13:55:00
7:55 AM,43.0,39.0,86,29.49,10.0,Calm,Calm,-,N/A,,Overcast,0,2012-03-30 14:55:00
8:55 AM,42.1,39.0,89,29.51,10.0,West,3.5,-,N/A,,Overcast,270,2012-03-30 15:55:00
9:55 AM,43.0,39.9,89,29.53,10.0,East,4.6,-,N/A,,Overcast,80,2012-03-30 16:55:00
10:55 AM,48.0,37.0,66,29.56,10.0,North,3.5,-,N/A,,Mostly Cloudy,350,2012-03-30 17:55:00
11:55 AM,51.1,35.1,54,29.57,10.0,West,5.8,-,N/A,,Clear,280,2012-03-30 18:55:00
12:55 PM,53.1,28.9,40,29.58,10.0,WSW,11.5,-,N/A,,Scattered Clouds,240,2012-03-30 19:55:00
1:55 PM,51.1,32.0,48,29.61,10.0,West,15.0,23.0,N/A,,Mostly Cloudy,260,2012-03-30 20:55:00
2:55 PM,51.1,33.1,50,29.60,10.0,South,4.6,-,N/A,,Clear,170,2012-03-30 21:55:00
3:55 PM,52.0,35.1,53,29.60,10.0,East,8.1,16.1,N/A,,Clear,100,2012-03-30 22:55:00
4:55 PM,54.0,32.0,43,29.60,10.0,WSW,15.0,20.7,N/A,,Scattered Clouds,250,2012-03-30 23:55:00
5:55 PM,52.0,26.1,37,29.60,10.0,WNW,19.6,32.2,N/A,,Clear,290,2012-03-31 00:55:00
6:55 PM,48.9,21.0,33,29.65,10.0,West,19.6,28.8,N/A,,Clear,270,2012-03-31 01:55:00
7:55 PM,46.9,21.0,36,29.66,10.0,West,12.7,-,N/A,,Clear,280,2012-03-31 02:55:00
8:55 PM,46.9,21.9,37,29.67,10.0,West,10.4,-,N/A,,Mostly Cloudy,270,2012-03-31 03:55:00
9:55 PM,45.0,24.1,44,29.67,10.0,NW,4.6,-,N/A,,Scattered Clouds,310,2012-03-31 04:55:00
10:55 PM,44.1,24.1,45,29.68,10.0,NW,5.8,-,N/A,,Overcast,320,2012-03-31 05:55:00
11:55 PM,45.0,25.0,46,29.66,10.0,NW,8.1,-,N/A,,Overcast,310,2012-03-31 06:55:00